Вернуться в каталог

QIANFAN-181

АктивенСвязьPO
NORAD 69398·PAYLOAD·🇨🇳 China

Запущен Jun 4, 2026 с Taiyuan Satellite Launch Center

Loading…

Ближайшие Пролёты (ближайшие 24 часа)

TLE

СвежийSource: Space-Track

Эпоха: Sep 14, 2026, 20:40 UTC

1 69398U 26124S   26257.86154043  .00000139  00000-0  19618-3 0  9994
2 69398  89.0074 352.6153 0002154 106.4394 253.6994 13.51023021 14134

Отслеживайте QIANFAN-181 в реальном времени с AllMySat

Download on the App Store